Regional Weather Roundup
Issued by NWS

Home | Current Version | Previous Version | Graphics & Text | Print | Product List | Glossary On
Versions: 1 2 3 4 5 6 7 8 9 10 11 12 13 14 15 16 17 18 19 20 21 22 23 24 25 26 27 28 29 30 31 32 33 34 35 36 37 38 39 40 41 42 43 44 45 46 47 48 49 50
313
ASUS45 KABQ 141301
RWRNM
NEW MEXICO REGIONAL WEATHER ROUNDUP
NATIONAL WEATHER SERVICE ALBUQUERQUE NM
600 AM MST SUN FEB 14 2016

NOTE: "FAIR" MEANS FEW OR NO CLOUDS BELOW 12,000 FEET AGL WITH NO
       SIGNIFICANT WEATHER OR OBSTRUCTIONS TO VISION.

      THIS PRODUCT IS RELEASED AS TWO VERSIONS.  ONE VERSION NEAR
      THE TOP OF THE HOUR CONTAINING PRELIMINARY DATA FROM ALBUQUERQUE
      AND OTHER STATIONS.  A FINAL VERSION WITH ADDITIONAL DATA IS
      ISSUED ABOUT 10 MINUTES AFTER THE HOUR.

NMZ501-503-504-510>518-141400-
NORTHWEST PLATEAU/NORTHCENTRAL MOUNTAINS

CITY           SKY/WX    TMP DP  RH WIND       PRES   REMARKS
FARMINGTON     FAIR      24  20  84 N6        30.13R WCI  17
SANTA FE       FAIR      34  19  54 N8        30.09S WCI  27
TAOS           FAIR      27  18  69 N3        30.13R

$$
NMZ402-403-502-505>509-141400-
WESTCENTRAL MOUNTAINS/SOUTHWEST MOUNTAINS

CITY           SKY/WX    TMP DP  RH WIND       PRES   REMARKS
GALLUP         FAIR      19  16  88 CALM      30.17F
GRANTS         FAIR      23  15  70 NW10      30.18S WCI  13
SILVER CITY      N/A     39  12  33 N9        30.12R WCI  33

$$
NMZ407-409-411-412-141400-
SOUTHERN DESERTS

CITY           SKY/WX    TMP DP  RH WIND       PRES   REMARKS
DEMING         FAIR      33  13  43 S3        30.06R
HOLLOMAN AFB   FAIR      33   9  36 VRB1      30.03R
ALAMOGORDO     FAIR      39   9  28 S6        30.03R WCI  35
T OR C         FAIR      46  12  25 NW9       30.08R

$$
NMZ519>523-141400-
CENTRAL VALLEYS/CENTRAL HIGHLANDS

CITY           SKY/WX    TMP DP  RH WIND       PRES   REMARKS
ALBUQUERQUE    CLOUDY    39  15  37 S3        30.12R
DOUBLE EAGLE   MOCLDY    41  18  38 E5        30.12S
MORIARTY ARPT  FAIR      26  15  61 CALM      30.10S
CLINES CORNERS FAIR      31  17  56 W7        30.07F WCI  24
BELEN          FAIR      32  13  46 CALM      30.12R
SOCORRO        NOT AVBL

$$
NMZ524>526-539-540-141400-
SOUTHCENTRAL MOUNTAINS

CITY           SKY/WX    TMP DP  RH WIND       PRES   REMARKS
RUIDOSO          N/A     45   5  19 W20G26    30.11S

$$
NMZ527>531-141400-
NORTHEAST HIGHLANDS/NORTHEAST PLAINS

CITY           SKY/WX    TMP DP  RH WIND       PRES   REMARKS
LAS VEGAS      FAIR      35  14  42 NE6       30.07R WCI  30
RATON          FAIR      27  19  72 E10       30.03S WCI  17
CLAYTON        FAIR      33  20  58 NW7       30.05F WCI  27

$$
NMZ532>537-141400-
EASTCENTRAL PLAINS

CITY           SKY/WX    TMP DP  RH WIND       PRES   REMARKS
TUCUMCARI      FAIR      39  24  55 NE5       30.07R
CANNON AFB     FAIR      40  26  58 NE17      30.03R WCI  31
CLOVIS AIRPORT FAIR      39  25  56 N21G26    30.04S WCI  29

$$
NMZ028-029-538-141400-
SOUTHEAST PLAINS

CITY           SKY/WX    TMP DP  RH WIND       PRES   REMARKS
ROSWELL        FAIR      37  20  50 CALM      29.98R
ARTESIA        FAIR      36  21  55 N9        29.99R WCI  29
CARLSBAD       FAIR      36  21  54 NW8       29.95R WCI  30
HOBBS          CLEAR     34  32  93 NW7       29.97R WCI  28


$$




USA.gov is the U.S. government's official web portal to all federal, state and local government web resources and services.